Location: Northern Prairie Star Party
(53.2167°N, 112.5333°W)
Time: 18:12:41
(UTC-07:00)

Amateur Radio Satellites - All Passes

Search period start: 23 January 2017 17:42
Search period end: 24 January 2017 17:42
Location: Northern Prairie Star Party, 53.2167°N, 112.5333°W

Satellite Date Start Highest point End Downlink Frequencies (MHz)
Time Altitude Azimuth
Cosmos 2499 23 Jan 17:46:49 17:51:07 16° 72° (ENE) 17:55:17 435.465 / 435.565
BEESAT 3 23 Jan 17:47:10 17:50:54 39° 325° (NW) 17:54:40 437.485
NOAA 18 23 Jan 17:51:30 17:56:57 67° 68° (ENE) 18:02:24 137.9125
HORYU 2 23 Jan 17:52:25 17:56:20 31° 265° (W) 18:00:17 437.375
CINEMA 3 23 Jan 18:08:34 18:12:35 41° 68° (ENE) 18:16:32 145.822/145.860
CUTE-I 23 Jan 18:13:28 18:18:41 56° 259° (W) 18:23:56 437.470
LilacSat-2 23 Jan 18:18:22 18:21:53 37° 263° (W) 18:25:28 437.200
CUBESAT XI-V 23 Jan 18:20:43 18:25:15 48° 292° (WNW) 18:29:44 437.345
STRAND 1 23 Jan 18:21:20 18:22:36 11° 82° (E) 18:23:52 437.568
STARS 23 Jan 18:21:27 18:25:40 48° 293° (WNW) 18:29:51 437.465
GOMX 1 23 Jan 18:24:13 18:28:27 24° 269° (W) 18:32:32 467.674
CUTE 1.7 + AOD 2 23 Jan 18:25:27 18:29:23 36° 66° (ENE) 18:33:20 437.475
M-CUBED/EXP-1 PRIME 23 Jan 18:38:52 18:41:13 17° 307° (NW) 18:43:28 437.505
CUBEBUG 2 23 Jan 18:39:08 18:42:29 24° 61° (ENE) 18:45:51 437.445
YUBILEINY 23 Jan 18:39:51 18:42:20 11° 333° (NNW) 18:44:49 435.215
BEESAT 2 23 Jan 18:40:18 18:43:55 32° 329° (NNW) 18:47:35 435.950
BRITE-PL 23 Jan 18:43:05 18:44:16 11° 280° (W) 18:45:27 437.365/2234.400
DOVE 4 23 Jan 18:44:14 18:48:28 30° 265° (W) 18:52:32 437.250
FUNcube-1 23 Jan 18:46:19 18:48:16 13° 53° (NE) 18:50:15 145.935
AO-85 23 Jan 18:50:23 18:53:17 18° 12° (NNE) 18:56:05 145.980
NOAA 15 23 Jan 18:54:35 18:59:05 28° 267° (W) 19:03:37 137.62
CANX-2 23 Jan 18:55:05 18:59:21 76° 73° (ENE) 19:03:40 2200.000
COMPASS 1 23 Jan 18:56:56 19:00:46 35° 66° (ENE) 19:04:38 437.405
SEEDS 23 Jan 18:58:25 19:02:32 51° 70° (ENE) 19:06:41 437.485
Cubesat XI-IV 23 Jan 18:59:02 19:03:31 27° 268° (W) 19:08:00 437.490
UWE-3 23 Jan 18:59:35 19:02:59 25° 62° (ENE) 19:06:26 435.000/436.395/437.385
AAUSAT CUBESAT 2 23 Jan 19:04:26 19:08:12 33° 66° (ENE) 19:12:00 437.432
HO-68 23 Jan 19:07:20 19:14:34 84° 252° (WSW) 19:21:50 435.675
ZACube-1 23 Jan 19:10:08 19:13:17 21° 60° (ENE) 19:16:29 437.345
AUBIESAT-1 23 Jan 19:13:21 19:14:24 11° 313° (NW) 19:15:27 437.475
KKS-1 23 Jan 19:16:57 19:18:30 12° 310° (NW) 19:20:03 437.445
GONETS M04 23 Jan 19:23:26 19:31:39 49° 88° (E) 19:39:56
BEESAT 3 23 Jan 19:26:47 19:29:30 17° 348° (NNW) 19:32:13 437.485
AIST 2 23 Jan 19:32:39 19:36:37 48° 126° (SE) 19:40:41 435.215
NOAA 18 23 Jan 19:33:39 19:38:05 25° 268° (W) 19:42:33 137.9125
Cosmos 2499 23 Jan 19:34:48 19:42:51 64° 95° (E) 19:50:19 435.465 / 435.565
Oscar 11 23 Jan 19:38:39 19:42:31 33° 64° (ENE) 19:46:25 145.826/435.025
CINEMA 3 23 Jan 19:46:16 19:49:54 26° 266° (W) 19:53:29 145.822/145.860
DELFI C3 23 Jan 19:49:43 19:52:20 17° 58° (ENE) 19:54:57 145.870
STRAND 1 23 Jan 19:57:44 20:02:51 62° 103° (ESE) 20:07:57 437.568
CUBESAT XI-V 23 Jan 20:01:11 20:01:33 10° 313° (NW) 20:01:57 437.345
CUTE 1.7 + AOD 2 23 Jan 20:01:27 20:05:16 31° 265° (W) 20:09:07 437.475
CUBEBUG 2 23 Jan 20:14:54 20:18:54 46° 261° (W) 20:22:57 437.445
FUNcube-1 23 Jan 20:19:41 20:23:49 78° 73° (ENE) 20:28:03 145.935
BEESAT 2 23 Jan 20:20:11 20:22:49 17° 352° (N) 20:25:28 435.950
HUMSAT D 23 Jan 20:23:26 20:26:35 21° 60° (ENE) 20:29:48 437.325/437.525
AO-85 23 Jan 20:30:48 20:34:39 42° 36° (NE) 20:38:23 145.980
COMPASS 1 23 Jan 20:32:36 20:36:22 31° 265° (W) 20:40:10 437.405
CANX-2 23 Jan 20:33:10 20:35:45 16° 273° (W) 20:38:21 2200.000
SEEDS 23 Jan 20:35:11 20:38:31 22° 269° (W) 20:41:53 437.485
UWE-3 23 Jan 20:35:18 20:39:16 45° 262° (W) 20:43:19 435.000/436.395/437.385
AAUSAT CUBESAT 2 23 Jan 20:39:53 20:43:40 33° 264° (W) 20:47:31 437.432
ZACube-1 23 Jan 20:45:11 20:49:16 56° 259° (W) 20:53:26 437.345
HO-68 23 Jan 20:58:07 21:03:23 21° 273° (W) 21:08:40 435.675
BEESAT 3 23 Jan 21:05:47 21:08:29 17° 12° (NNE) 21:11:13 437.485
AIST 2 23 Jan 21:11:20 21:15:14 37° 327° (NNW) 21:19:12 435.215
Oscar 11 23 Jan 21:14:38 21:18:38 36° 264° (W) 21:22:40 145.826/435.025
GONETS M04 23 Jan 21:20:02 21:28:30 52° 292° (WNW) 21:37:05
DELFI C3 23 Jan 21:22:39 21:26:41 71° 257° (WSW) 21:30:43 145.870
Cosmos 2499 23 Jan 21:29:08 21:36:28 37° 296° (WNW) 21:43:22 435.465 / 435.565
STRAND 1 23 Jan 21:37:27 21:41:42 27° 302° (WNW) 21:45:56 437.568
AISAT 23 Jan 21:41:18 21:42:55 12° 50° (NE) 21:44:33 437.250
BY70-1 23 Jan 21:43:48 21:46:37 28° 65° (ENE) 21:49:31 436.1900
UNISAT 6 23 Jan 21:50:01 21:53:29 22° 91° (E) 21:56:59 437.425
PRISM 23 Jan 21:51:40 21:55:43 52° 101° (E) 21:59:43 437.425
ISS 23 Jan 21:52:43 21:55:09 19° 148° (SSE) 21:57:35 145.825
HUMSAT D 23 Jan 21:57:49 22:01:53 56° 259° (W) 22:06:02 437.325/437.525
FUNcube-1 23 Jan 21:58:24 22:00:39 14° 273° (W) 22:02:56 145.935
BEESAT 2 23 Jan 21:59:00 22:01:59 19° 16° (NNE) 22:04:57 435.950
TIGRISAT 23 Jan 22:01:58 22:05:42 26° 93° (E) 22:09:29 435.000
50 SAT 23 Jan 22:08:26 22:08:50 10° 54° (NE) 22:09:14 437.505
JAS-2 23 Jan 22:09:37 22:15:11 23° 86° (E) 22:21:01 435.910
AO-85 23 Jan 22:11:23 22:14:59 34° 237° (WSW) 22:18:31 145.980
VELOX 1 23 Jan 22:12:34 22:15:43 19° 57° (ENE) 22:18:53 145.980
SPROUT 23 Jan 22:13:11 22:15:31 15° 54° (NE) 22:17:52 437.525
ESTCUBE 1 23 Jan 22:16:42 22:20:59 43° 67° (ENE) 22:25:18 437.505/2401.250
ANTELSAT 23 Jan 22:17:59 22:22:07 37° 97° (E) 22:26:20 437.575/2403.000
UKube-1 23 Jan 22:25:08 22:26:33 11° 50° (NE) 22:27:58 .
DX 1 23 Jan 22:32:17 22:35:00 16° 55° (NE) 22:37:43 434.975-435.025
RS-15 23 Jan 22:37:55 22:48:18 37° 107° (ESE) 22:58:58 29.354- 29.394
YUBILEINY 23 Jan 22:41:04 22:47:03 19° 44° (NE) 22:52:57 435.215
BEESAT 3 23 Jan 22:43:20 22:47:06 38° 35° (NE) 22:50:52 437.485
CUBEBUG 1 23 Jan 22:47:30 22:51:45 50° 68° (ENE) 22:56:00 437.445
AIST 2 23 Jan 22:51:50 22:54:47 18° 350° (N) 22:57:46 435.215
POPSAT HIP 1 23 Jan 22:58:39 23:00:08 12° 85° (E) 23:01:37 437.405
DUCHIFAT 1 23 Jan 23:04:31 23:05:57 11° 85° (E) 23:07:23 145.980
NANOSAT C BR1 23 Jan 23:11:23 23:13:47 15° 88° (E) 23:16:10 145.865
BY70-1 23 Jan 23:14:04 23:16:49 26° 265° (W) 23:19:41 436.1900
AISAT 23 Jan 23:14:10 23:18:33 62° 70° (ENE) 23:22:56 437.250
AIST 1 23 Jan 23:14:18 23:16:40 14° 59° (ENE) 23:19:00
GONETS M04 23 Jan 23:22:36 23:27:57 17° 320° (NW) 23:33:22
Cosmos 2504 23 Jan 23:25:11 23:29:22 15° 43° (NE) 23:33:26 435.465 / 435.565
UNISAT 6 23 Jan 23:26:10 23:30:32 57° 290° (WNW) 23:34:59 437.425
TISAT 1 23 Jan 23:27:25 23:29:35 14° 54° (NE) 23:31:43 437.305
PRISM 23 Jan 23:27:31 23:30:45 22° 300° (WNW) 23:33:57 437.425
ISS 23 Jan 23:28:00 23:31:12 53° 166° (SSE) 23:34:23 145.825
Cosmos 2499 23 Jan 23:30:37 23:32:21 11° 324° (NW) 23:34:04 435.465 / 435.565
BEESAT 2 23 Jan 23:36:39 23:40:37 50° 39° (NE) 23:44:34 435.950
50 SAT 23 Jan 23:37:48 23:41:22 73° 72° (ENE) 23:44:58 437.505
TIGRISAT 23 Jan 23:38:21 23:42:36 48° 292° (WNW) 23:46:57 435.000
SPROUT 23 Jan 23:46:34 23:50:50 86° 74° (ENE) 23:55:07 437.525
Cosmos 2491 23 Jan 23:46:45 23:49:28 12° 63° (ENE) 23:52:11 435.465 / 435.565
VELOX 1 23 Jan 23:47:17 23:51:44 72° 256° (WSW) 23:56:11 145.980
JAS-2 23 Jan 23:53:53 00:01:04 84° 105° (ESE) 00:08:52 435.910
ESTCUBE 1 23 Jan 23:53:58 23:57:56 29° 266° (W) 00:01:57 437.505/2401.250
ANTELSAT 23 Jan 23:54:49 23:58:49 34° 295° (WNW) 00:02:54 437.575/2403.000
UKube-1 23 Jan 23:57:29 00:01:46 61° 70° (ENE) 00:06:02 .
PCSat 24 Jan 00:00:46 00:05:26 30° 113° (ESE) 00:10:08 145.827
QB50P1 24 Jan 00:05:04 00:09:10 47° 99° (E) 00:13:15 145.935-145.965
DX 1 24 Jan 00:06:14 00:10:38 87° 259° (WSW) 00:15:01 434.975-435.025
POLYITAN 1 24 Jan 00:10:30 00:14:40 53° 101° (E) 00:18:49 437.675
QB50P2 24 Jan 00:11:53 00:16:06 58° 102° (ESE) 00:20:16 145.880/145.840
BEESAT 3 24 Jan 00:20:59 00:24:47 42° 235° (SW) 00:28:34 437.485
BEESAT 24 Jan 00:23:53 00:26:32 15° 51° (NE) 00:29:12 436.000
CUBEBUG 1 24 Jan 00:24:44 00:28:18 24° 268° (W) 00:31:52 437.445
SWISSCUBE 24 Jan 00:25:33 00:28:31 17° 52° (NE) 00:31:30 437.505
AIST 2 24 Jan 00:31:33 00:34:41 20° 14° (NNE) 00:37:49 435.215
POPSAT HIP 1 24 Jan 00:32:22 00:36:37 83° 104° (ESE) 00:40:51 437.405
Oscar 19 24 Jan 00:34:49 00:37:10 13° 84° (E) 00:39:31 437.125/150
YUBILEINY 24 Jan 00:37:27 00:46:11 59° 71° (ENE) 00:54:49 435.215
DUCHIFAT 1 24 Jan 00:38:06 00:42:20 83° 106° (ESE) 00:46:33 145.980
NANOSAT C BR1 24 Jan 00:45:49 00:50:02 78° 288° (WNW) 00:54:16 145.865
RS-15 24 Jan 00:47:27 00:59:34 89° 313° (NW) 01:12:04 29.354- 29.394
AIST 1 24 Jan 00:50:38 00:54:57 88° 263° (W) 00:59:12
AISAT 24 Jan 00:52:09 00:55:25 20° 269° (W) 00:58:42 437.250
BUGSAT 1 24 Jan 00:56:28 01:00:25 50° 100° (E) 01:04:23 437.445
TISAT 1 24 Jan 01:00:24 01:04:34 83° 72° (ENE) 01:08:46 437.305
ISS 24 Jan 01:04:18 01:07:32 64° 186° (S) 01:10:46 145.825
UNISAT 6 24 Jan 01:05:09 01:06:23 11° 310° (NW) 01:07:38 437.425
CUSAT 1 24 Jan 01:07:12 01:08:23 10° 67° (ENE) 01:09:35 437.405
50 SAT 24 Jan 01:13:35 01:15:03 12° 272° (W) 01:16:32 437.505
BEESAT 2 24 Jan 01:14:42 01:18:16 30° 239° (WSW) 01:21:49 435.950
Cosmos 2504 24 Jan 01:17:34 01:24:54 54° 70° (ENE) 01:31:54 435.465 / 435.565
Gurwin Techsat 1B 24 Jan 01:19:55 01:23:33 18° 87° (E) 01:27:11 435.225
MOZHAYETS 4 24 Jan 01:21:11 01:23:48 15° 53° (NE) 01:26:25
SPROUT 24 Jan 01:25:16 01:27:23 13° 273° (W) 01:29:30 437.525
ITUPSAT 1 24 Jan 01:27:16 01:31:44 40° 64° (ENE) 01:36:13 437.325
VELOX 1 24 Jan 01:27:56 01:29:01 11° 276° (W) 01:30:05 145.980
UKube-1 24 Jan 01:35:02 01:38:10 19° 269° (W) 01:41:20 .
Cosmos 2491 24 Jan 01:35:47 01:43:59 49° 88° (E) 01:52:14 435.465 / 435.565
JAS-2 24 Jan 01:39:36 01:45:32 30° 305° (NW) 01:51:53 435.910
QB50P1 24 Jan 01:41:16 01:44:44 25° 299° (WNW) 01:48:12 145.935-145.965
PCSat 24 Jan 01:43:08 01:48:31 64° 314° (NW) 01:53:58 145.827
DX 1 24 Jan 01:45:28 01:47:30 13° 274° (W) 01:49:31 434.975-435.025
POLYITAN 1 24 Jan 01:46:51 01:50:11 23° 300° (WNW) 01:53:31 437.675
QB50P2 24 Jan 01:48:21 01:51:33 21° 301° (WNW) 01:54:47 145.880/145.840
BEESAT 24 Jan 01:58:48 02:03:33 73° 72° (ENE) 02:08:20 436.000
SWISSCUBE 24 Jan 02:00:52 02:05:38 82° 72° (ENE) 02:10:27 437.505
POPSAT HIP 1 24 Jan 02:09:15 02:11:52 16° 304° (NW) 02:14:29 437.405
AIST 2 24 Jan 02:09:58 02:14:05 46° 37° (NE) 02:18:12 435.215
Oscar 19 24 Jan 02:12:14 02:17:27 73° 104° (ESE) 02:22:36 437.125/150
DUCHIFAT 1 24 Jan 02:14:54 02:17:29 16° 304° (NW) 02:20:04 145.980
CUBESAT XI-V 24 Jan 02:19:17 02:20:40 11° 48° (NE) 02:22:02 437.345
M-CUBED/EXP-1 PRIME 24 Jan 02:21:09 02:24:40 28° 58° (ENE) 02:27:58 437.505
NANOSAT C BR1 24 Jan 02:23:04 02:25:06 13° 306° (NW) 02:27:08 145.865
AIST 1 24 Jan 02:30:15 02:31:48 12° 280° (W) 02:33:23
BUGSAT 1 24 Jan 02:32:23 02:35:32 22° 299° (WNW) 02:38:40 437.445
YUBILEINY 24 Jan 02:34:41 02:42:46 43° 275° (W) 02:50:50 435.215
DANDE 24 Jan 02:35:30 02:37:41 13° 72° (ENE) 02:40:04 436.750
TISAT 1 24 Jan 02:38:41 02:40:48 14° 273° (W) 02:42:55 437.305
ISS 24 Jan 02:40:50 02:43:43 29° 206° (SSW) 02:46:36 145.825
CUSAT 1 24 Jan 02:42:30 02:48:13 47° 90° (E) 02:55:12 437.405
AUBIESAT-1 24 Jan 02:53:52 02:57:43 44° 62° (ENE) 03:01:19 437.475
MOZHAYETS 4 24 Jan 02:55:40 03:00:15 79° 72° (ENE) 03:04:54
Gurwin Techsat 1B 24 Jan 02:58:51 03:04:13 85° 288° (WNW) 03:09:33 435.225
RS-15 24 Jan 03:01:41 03:13:37 53° 344° (NNW) 03:25:42 29.354- 29.394
ITAMSAT 1 24 Jan 03:04:14 03:08:47 29° 94° (E) 03:13:17 435.822/435.867
ITUPSAT 1 24 Jan 03:05:18 03:09:38 34° 264° (W) 03:14:01 437.325
KKS-1 24 Jan 03:06:02 03:10:11 40° 65° (ENE) 03:14:20 437.445
Cosmos 2504 24 Jan 03:11:22 03:18:04 38° 275° (W) 03:24:32 435.465 / 435.565
JAS-2 24 Jan 03:27:56 03:28:34 10° 328° (NNW) 03:29:12 435.910
PCSat 24 Jan 03:28:29 03:32:56 25° 338° (NNW) 03:37:24 145.827
GONETS M04 24 Jan 03:29:25 03:32:48 12° 30° (NNE) 03:36:12
Cosmos 2491 24 Jan 03:32:26 03:40:52 52° 292° (WNW) 03:49:24 435.465 / 435.565
AO-7 24 Jan 03:36:03 03:43:50 40° 97° (E) 03:51:31 29.400- 29.500
BEESAT 24 Jan 03:38:31 03:41:53 19° 271° (W) 03:45:15 436.000
SWISSCUBE 24 Jan 03:41:02 03:44:04 17° 272° (W) 03:47:06 437.505
STARS 24 Jan 03:47:36 03:51:47 47° 67° (ENE) 03:56:00 437.465
AIST 2 24 Jan 03:48:37 03:52:32 36° 237° (WSW) 03:56:25 435.215
Oscar 19 24 Jan 03:52:16 03:56:19 24° 304° (NW) 04:00:21 437.125/150
CUBESAT XI-V 24 Jan 03:52:28 03:57:03 53° 69° (ENE) 04:01:40 437.345
M-CUBED/EXP-1 PRIME 24 Jan 03:55:08 03:59:04 40° 254° (WSW) 04:02:44 437.505
DANDE 24 Jan 04:14:07 04:18:45 71° 98° (E) 04:25:02 436.750
CUSAT 1 24 Jan 04:24:18 04:30:14 46° 296° (WNW) 04:37:26 437.405
AUBIESAT-1 24 Jan 04:29:00 04:32:17 23° 259° (W) 04:35:25 437.475
MOZHAYETS 4 24 Jan 04:35:05 04:38:01 17° 273° (W) 04:40:57
Gurwin Techsat 1B 24 Jan 04:39:47 04:43:29 19° 308° (NW) 04:47:10 435.225
KKS-1 24 Jan 04:42:54 04:46:51 31° 265° (W) 04:50:48 437.445
ITAMSAT 1 24 Jan 04:43:27 04:48:31 53° 294° (WNW) 04:53:35 435.822/435.867
BRITE-PL 24 Jan 04:58:17 05:02:43 33° 93° (E) 05:06:49 437.365/2234.400
PCSat 24 Jan 05:14:19 05:18:10 19° 4° (N) 05:22:01 145.827
RS-15 24 Jan 05:16:54 05:28:59 53° 17° (NNE) 05:40:55 29.354- 29.394
Cosmos 2499 24 Jan 05:18:34 05:24:59 33° 62° (ENE) 05:31:14 435.465 / 435.565
NOAA 15 24 Jan 05:24:08 05:26:37 13° 84° (E) 05:29:06 137.62
STARS 24 Jan 05:24:44 05:28:22 25° 266° (W) 05:32:00 437.465
GONETS M04 24 Jan 05:25:10 05:33:10 36° 60° (ENE) 05:41:09
AO-7 24 Jan 05:28:49 05:37:05 65° 299° (WNW) 05:45:17 29.400- 29.500
Cubesat XI-IV 24 Jan 05:29:59 05:32:49 14° 85° (E) 05:35:39 437.490
CUBESAT XI-V 24 Jan 05:30:50 05:34:43 25° 268° (W) 05:38:38 437.345
Cosmos 2491 24 Jan 05:35:04 05:40:20 17° 320° (NW) 05:45:39 435.465 / 435.565
HORYU 2 24 Jan 05:36:22 05:40:22 32° 96° (E) 05:44:23 437.375
STRAND 1 24 Jan 05:41:41 05:46:06 31° 60° (ENE) 05:50:33 437.568
LilacSat-2 24 Jan 05:45:51 05:48:25 17° 90° (E) 05:50:57 437.200
O/OREOS (USA 219) 24 Jan 05:47:07 05:51:08 33° 108° (ESE) 05:55:09 437.305
DANDE 24 Jan 05:58:10 06:02:22 25° 307° (NW) 06:07:36 436.750
NOAA 18 24 Jan 06:08:10 06:11:37 17° 87° (E) 06:15:03 137.9125
CUSAT 1 24 Jan 06:10:33 06:14:25 15° 322° (NW) 06:18:37 437.405
GOMX 1 24 Jan 06:18:37 06:23:06 71° 103° (ESE) 06:27:18 467.674
CUTE-I 24 Jan 06:23:58 06:28:55 37° 96° (E) 06:33:51 437.470
ITAMSAT 1 24 Jan 06:24:42 06:26:56 13° 315° (NW) 06:29:11 435.822/435.867
HO-68 24 Jan 06:30:06 06:33:37 14° 81° (E) 06:37:07 435.675
DOVE 4 24 Jan 06:36:00 06:40:02 44° 98° (E) 06:44:00 437.250
BRITE-PL 24 Jan 06:36:43 06:41:20 40° 295° (WNW) 06:45:34 437.365/2234.400
SO-50 24 Jan 06:48:29 06:51:52 20° 115° (ESE) 06:55:14 436.795
PCSat 24 Jan 06:58:24 07:03:14 31° 30° (NNE) 07:08:03 145.827
NOAA 15 24 Jan 07:02:02 07:07:23 72° 104° (ESE) 07:12:41 137.62
Cubesat XI-IV 24 Jan 07:08:26 07:13:48 77° 104° (ESE) 07:19:11 437.490
Cosmos 2499 24 Jan 07:11:36 07:18:40 64° 266° (W) 07:25:37 435.465 / 435.565
HORYU 2 24 Jan 07:12:51 07:17:00 39° 295° (WNW) 07:21:09 437.375
PRISM 24 Jan 07:13:42 07:15:58 14° 54° (NE) 07:18:15 437.425
LilacSat-2 24 Jan 07:19:14 07:23:04 59° 288° (WNW) 07:26:54 437.200
STRAND 1 24 Jan 07:20:07 07:25:05 52° 260° (W) 07:30:06 437.568
GONETS M04 24 Jan 07:22:00 07:30:49 73° 265° (W) 07:39:36
AO-7 24 Jan 07:22:12 07:28:29 25° 323° (NW) 07:34:45 29.400- 29.500
O/OREOS (USA 219) 24 Jan 07:26:15 07:30:29 40° 309° (NW) 07:34:44 437.305
RS-15 24 Jan 07:30:31 07:43:01 89° 50° (NE) 07:55:08 29.354- 29.394
CINEMA 3 24 Jan 07:33:15 07:37:16 42° 98° (E) 07:41:23 145.822/145.860
CUTE 1.7 + AOD 2 24 Jan 07:39:35 07:43:26 30° 95° (E) 07:47:14 437.475
NOAA 18 24 Jan 07:47:37 07:53:07 86° 108° (ESE) 07:58:35 137.9125
ANTELSAT 24 Jan 07:49:27 07:50:59 12° 51° (NE) 07:52:32 437.575/2403.000
GOMX 1 24 Jan 07:57:37 08:00:41 19° 304° (NW) 08:03:39 467.674
CUBEBUG 2 24 Jan 07:59:07 08:02:38 23° 92° (E) 08:06:14 437.445
FUNcube-1 24 Jan 08:03:27 08:04:29 11° 84° (E) 08:05:31 145.935
CUTE-I 24 Jan 08:04:02 08:09:04 44° 296° (WNW) 08:14:07 437.470
COMPASS 1 24 Jan 08:08:42 08:12:22 28° 94° (E) 08:16:00 437.405
CANX-2 24 Jan 08:09:32 08:13:51 65° 102° (ESE) 08:18:07 2200.000
SEEDS 24 Jan 08:11:29 08:15:34 42° 97° (E) 08:19:37 437.485
DOVE 4 24 Jan 08:14:08 08:17:35 25° 298° (WNW) 08:21:00 437.250
AAUSAT CUBESAT 2 24 Jan 08:15:32 08:19:06 26° 93° (E) 08:22:37 437.432
HO-68 24 Jan 08:15:48 08:22:56 60° 103° (ESE) 08:30:00 435.675
UWE-3 24 Jan 08:18:18 08:21:53 24° 92° (E) 08:25:31 435.000/436.395/437.385
SO-50 24 Jan 08:27:08 08:31:50 85° 315° (NW) 08:36:29 436.795
ZACube-1 24 Jan 08:27:24 08:30:35 19° 90° (E) 08:33:49 437.345
JAS-2 24 Jan 08:30:37 08:34:36 19° 45° (NE) 08:38:54 435.910
PCSat 24 Jan 08:41:47 08:47:15 85° 234° (SW) 08:52:42 145.827
NOAA 15 24 Jan 08:42:28 08:46:43 25° 304° (NW) 08:50:58 137.62
PRISM 24 Jan 08:46:29 08:50:39 86° 76° (ENE) 08:54:51 437.425
Cubesat XI-IV 24 Jan 08:49:15 08:53:24 24° 305° (NW) 08:57:34 437.490
UNISAT 6 24 Jan 08:54:41 08:58:37 37° 66° (ENE) 09:02:36 437.425
Oscar 11 24 Jan 08:55:17 08:59:05 28° 94° (E) 09:02:51 145.826/435.025
DELFI C3 24 Jan 08:56:15 08:56:53 10° 84° (E) 08:57:32 145.870
TIGRISAT 24 Jan 09:06:30 09:10:32 44° 68° (ENE) 09:14:38 435.000
Cosmos 2499 24 Jan 09:06:57 09:10:15 14° 289° (WNW) 09:13:31 435.465 / 435.565
O/OREOS (USA 219) 24 Jan 09:09:21 09:11:09 12° 332° (NNW) 09:12:57 437.305
CINEMA 3 24 Jan 09:10:46 09:14:18 27° 297° (WNW) 09:17:53 145.822/145.860
AO-7 24 Jan 09:15:06 09:18:24 13° 350° (N) 09:21:43 29.400- 29.500
CUTE 1.7 + AOD 2 24 Jan 09:15:21 09:19:21 37° 294° (WNW) 09:23:18 437.475
GONETS M04 24 Jan 09:20:16 09:26:05 20° 288° (WNW) 09:31:55
ANTELSAT 24 Jan 09:22:41 09:26:54 66° 72° (ENE) 09:31:11 437.575/2403.000
NOAA 18 24 Jan 09:29:06 09:33:12 22° 308° (NW) 09:37:16 137.9125
QB50P1 24 Jan 09:30:12 09:32:12 13° 53° (NE) 09:34:12 145.935-145.965
CUBEBUG 2 24 Jan 09:35:18 09:39:31 51° 290° (WNW) 09:43:51 437.445
POLYITAN 1 24 Jan 09:35:26 09:37:44 15° 55° (NE) 09:40:04 437.675
HUMSAT D 24 Jan 09:35:32 09:38:19 17° 88° (E) 09:41:07 437.325/437.525
QB50P2 24 Jan 09:36:36 09:39:07 16° 55° (NE) 09:41:38 145.880/145.840
FUNcube-1 24 Jan 09:37:06 09:41:30 72° 102° (ESE) 09:45:59 145.935
Cosmos 2491 24 Jan 09:41:54 09:45:13 12° 30° (NNE) 09:48:31 435.465 / 435.565
RS-15 24 Jan 09:43:38 09:54:15 37° 254° (WSW) 10:04:36 29.354- 29.394
COMPASS 1 24 Jan 09:44:05 09:48:02 39° 293° (WNW) 09:51:56 437.405
CANX-2 24 Jan 09:46:09 09:49:18 20° 301° (WNW) 09:52:26 2200.000
CUTE-I 24 Jan 09:46:26 09:47:53 11° 317° (NW) 09:49:21 437.470
SEEDS 24 Jan 09:47:29 09:51:07 28° 297° (WNW) 09:54:44 437.485
AAUSAT CUBESAT 2 24 Jan 09:50:45 09:54:44 42° 292° (WNW) 09:58:39 437.432
UWE-3 24 Jan 09:54:21 09:58:35 50° 291° (WNW) 10:02:56 435.000/436.395/437.385
POPSAT HIP 1 24 Jan 09:56:13 09:59:20 21° 59° (ENE) 10:02:27 437.405
DUCHIFAT 1 24 Jan 10:01:24 10:04:28 20° 59° (ENE) 10:07:33 145.980
ZACube-1 24 Jan 10:02:55 10:07:17 64° 288° (WNW) 10:11:42 437.345
HO-68 24 Jan 10:03:53 10:10:27 40° 304° (NW) 10:16:58 435.675
SO-50 24 Jan 10:08:51 10:12:53 28° 337° (NNW) 10:16:53 436.795
NANOSAT C BR1 24 Jan 10:08:55 10:12:19 25° 61° (ENE) 10:15:44 145.865
JAS-2 24 Jan 10:12:59 10:18:35 73° 69° (ENE) 10:24:56 435.910
BUGSAT 1 24 Jan 10:19:14 10:21:06 13° 54° (NE) 10:22:57 437.445
PRISM 24 Jan 10:24:33 10:26:33 13° 273° (W) 10:28:34 437.425
PCSat 24 Jan 10:26:16 10:29:56 19° 253° (WSW) 10:33:34 145.827
DELFI C3 24 Jan 10:28:23 10:32:25 81° 104° (ESE) 10:36:23 145.870
Oscar 11 24 Jan 10:31:14 10:35:22 42° 293° (WNW) 10:39:28 145.826/435.025
UNISAT 6 24 Jan 10:31:41 10:35:26 30° 265° (W) 10:39:14 437.425
TIGRISAT 24 Jan 10:43:56 10:47:27 25° 267° (W) 10:51:01 435.000
ANTELSAT 24 Jan 11:01:13 11:04:06 17° 271° (W) 11:06:59 437.575/2403.000
QB50P1 24 Jan 11:03:07 11:07:17 78° 74° (ENE) 11:11:31 145.935-145.965
AO-7 24 Jan 11:03:47 11:07:49 15° 18° (NNE) 11:11:50 29.400- 29.500
POLYITAN 1 24 Jan 11:08:44 11:12:56 88° 69° (ENE) 11:17:10 437.675
HUMSAT D 24 Jan 11:10:07 11:14:25 71° 287° (WNW) 11:18:42 437.325/437.525
QB50P2 24 Jan 11:10:09 11:14:21 85° 252° (WSW) 11:18:36 145.880/145.840
Gurwin Techsat 1B 24 Jan 11:10:46 11:12:57 13° 45° (NE) 11:15:09 435.225
FUNcube-1 24 Jan 11:14:13 11:17:19 19° 302° (WNW) 11:20:27 145.935
DANDE 24 Jan 11:21:02 11:22:06 10° 32° (NNE) 11:23:11 436.750
CUSAT 1 24 Jan 11:26:49 11:32:25 20° 45° (NE) 11:37:53 437.405
POPSAT HIP 1 24 Jan 11:30:37 11:34:45 60° 258° (WSW) 11:38:56 437.405
VELOX 1 24 Jan 11:32:19 11:34:42 14° 87° (E) 11:37:05 145.980
DUCHIFAT 1 24 Jan 11:35:40 11:39:48 60° 258° (WSW) 11:43:57 145.980
Cosmos 2491 24 Jan 11:37:36 11:45:34 36° 60° (ENE) 11:53:31 435.465 / 435.565
ESTCUBE 1 24 Jan 11:39:22 11:43:39 38° 97° (E) 11:47:52 437.505/2401.250
ZACube-1 24 Jan 11:41:08 11:42:47 12° 308° (NW) 11:44:26 437.345
BY70-1 24 Jan 11:41:31 11:44:47 71° 102° (ESE) 11:47:49 436.1900
NANOSAT C BR1 24 Jan 11:43:48 11:47:50 47° 261° (W) 11:51:54 145.865
DX 1 24 Jan 11:50:42 11:51:34 10° 85° (E) 11:52:27 434.975-435.025
SO-50 24 Jan 11:51:17 11:54:42 20° 1° (N) 11:58:04 436.795
BUGSAT 1 24 Jan 11:51:48 11:55:50 81° 73° (ENE) 11:59:53 437.445
HO-68 24 Jan 11:52:57 11:56:22 14° 328° (NNW) 11:59:46 435.675
YUBILEINY 24 Jan 11:56:10 11:59:50 13° 65° (ENE) 12:03:31 435.215
Oscar 19 24 Jan 11:56:42 12:01:25 36° 62° (ENE) 12:06:09 437.125/150
JAS-2 24 Jan 11:59:59 12:04:28 24° 274° (W) 12:09:23 435.910
DELFI C3 24 Jan 12:04:21 12:06:41 15° 303° (WNW) 12:09:01 145.870
CUBEBUG 1 24 Jan 12:05:52 12:10:00 41° 98° (E) 12:14:05 437.445
50 SAT 24 Jan 12:30:27 12:33:44 33° 97° (E) 12:36:58 437.505
AO-85 24 Jan 12:32:26 12:35:03 15° 114° (ESE) 12:37:35 145.980
O/OREOS (USA 219) 24 Jan 12:33:23 12:34:35 11° 25° (NNE) 12:35:47 437.305
AISAT 24 Jan 12:34:16 12:38:35 51° 100° (E) 12:42:51 437.250
QB50P1 24 Jan 12:41:16 12:43:37 15° 272° (W) 12:45:59 145.935-145.965
Gurwin Techsat 1B 24 Jan 12:46:41 12:51:48 51° 66° (ENE) 12:56:58 435.225
HUMSAT D 24 Jan 12:47:25 12:49:17 13° 307° (NW) 12:51:09 437.325/437.525
POLYITAN 1 24 Jan 12:47:26 12:49:22 13° 274° (W) 12:51:18 437.675
QB50P2 24 Jan 12:49:16 12:50:51 12° 274° (W) 12:52:26 145.880/145.840
AO-7 24 Jan 12:51:04 12:58:04 31° 43° (NE) 13:05:03 29.400- 29.500
ITAMSAT 1 24 Jan 12:51:15 12:54:39 18° 51° (NE) 12:58:03 435.822/435.867
DANDE 24 Jan 13:00:59 13:07:34 30° 57° (ENE) 13:14:38 436.750
SPROUT 24 Jan 13:01:50 13:06:06 71° 104° (ESE) 13:10:21 437.525
VELOX 1 24 Jan 13:07:21 13:11:48 85° 287° (WNW) 13:16:11 145.980
CUSAT 1 24 Jan 13:08:15 13:16:11 59° 69° (ENE) 13:23:32 437.405
BY70-1 24 Jan 13:13:08 13:14:28 12° 303° (WNW) 13:15:46 436.1900
UKube-1 24 Jan 13:14:10 13:18:20 45° 100° (E) 13:22:29 .
ESTCUBE 1 24 Jan 13:16:19 13:20:24 33° 297° (WNW) 13:24:26 437.505/2401.250
DX 1 24 Jan 13:24:13 13:28:34 73° 103° (ESE) 13:32:54 434.975-435.025
AIST 1 24 Jan 13:26:12 13:30:14 38° 92° (E) 13:34:15
BUGSAT 1 24 Jan 13:29:51 13:31:47 13° 273° (W) 13:33:42 437.445
SO-50 24 Jan 13:32:22 13:36:27 30° 25° (NNE) 13:40:28 436.795
Cosmos 2491 24 Jan 13:34:28 13:43:13 72° 265° (W) 13:51:58 435.465 / 435.565
Oscar 19 24 Jan 13:35:42 13:40:41 44° 262° (W) 13:45:40 437.125/150
CUBEBUG 1 24 Jan 13:42:26 13:46:10 29° 298° (WNW) 13:49:53 437.445
YUBILEINY 24 Jan 13:46:01 13:54:26 53° 89° (E) 14:02:55 435.215
BEESAT 24 Jan 13:54:32 13:56:19 12° 84° (E) 13:58:06 436.000
SWISSCUBE 24 Jan 13:56:09 13:58:35 14° 86° (E) 14:01:00 437.505
Cosmos 2504 24 Jan 14:03:01 14:10:35 39° 86° (E) 14:17:43 435.465 / 435.565
50 SAT 24 Jan 14:03:52 14:06:50 25° 296° (WNW) 14:09:46 437.505
AO-85 24 Jan 14:10:22 14:14:55 81° 133° (SE) 14:19:10 145.980
AISAT 24 Jan 14:11:13 14:14:48 25° 300° (WNW) 14:18:22 437.250
O/OREOS (USA 219) 24 Jan 14:11:16 14:15:24 34° 48° (NE) 14:19:32 437.305
TISAT 1 24 Jan 14:13:25 14:17:34 62° 102° (ESE) 14:21:43 437.305
Gurwin Techsat 1B 24 Jan 14:27:19 14:32:00 31° 266° (W) 14:36:44 435.225
ITAMSAT 1 24 Jan 14:28:13 14:33:23 80° 72° (ENE) 14:38:37 435.822/435.867
BRITE-PL 24 Jan 14:38:08 14:41:42 18° 53° (NE) 14:45:12 437.365/2234.400
SPROUT 24 Jan 14:38:38 14:41:35 19° 303° (WNW) 14:44:32 437.525
AO-7 24 Jan 14:41:33 14:49:57 86° 65° (ENE) 14:58:23 29.400- 29.500
DANDE 24 Jan 14:43:23 14:51:14 88° 76° (ENE) 14:59:40 436.750
VELOX 1 24 Jan 14:45:04 14:47:37 15° 307° (NW) 14:50:09 145.980
MOZHAYETS 4 24 Jan 14:46:00 14:48:03 13° 84° (E) 14:50:05
CUSAT 1 24 Jan 14:50:33 14:57:58 43° 271° (W) 15:04:49 437.405
UKube-1 24 Jan 14:50:34 14:54:12 27° 299° (WNW) 14:57:49 .
ITUPSAT 1 24 Jan 14:58:48 15:03:20 39° 97° (E) 15:07:51 437.325
DX 1 24 Jan 15:01:17 15:04:18 19° 304° (WNW) 15:07:18 434.975-435.025
AIST 1 24 Jan 15:04:08 15:07:55 29° 292° (WNW) 15:11:44
HORYU 2 24 Jan 15:06:54 15:08:37 12° 50° (NE) 15:10:22 437.375
SO-50 24 Jan 15:12:49 15:17:23 80° 228° (SW) 15:21:51 436.795
Cubesat XI-IV 24 Jan 15:22:22 15:23:30 11° 42° (NE) 15:24:38 437.490
BEESAT 24 Jan 15:30:09 15:34:58 73° 104° (ESE) 15:39:46 436.000
SWISSCUBE 24 Jan 15:32:18 15:37:09 82° 104° (ESE) 15:41:58 437.505
Cosmos 2491 24 Jan 15:32:46 15:38:31 20° 288° (WNW) 15:44:16 435.465 / 435.565
YUBILEINY 24 Jan 15:42:56 15:51:25 49° 293° (WNW) 15:59:59 435.215
TISAT 1 24 Jan 15:49:47 15:52:51 20° 301° (WNW) 15:55:55 437.305
O/OREOS (USA 219) 24 Jan 15:50:40 15:54:55 42° 249° (WSW) 15:59:10 437.305
AO-85 24 Jan 15:51:58 15:55:45 28° 333° (NNW) 15:59:21 145.980
BEESAT 3 24 Jan 15:53:23 15:57:03 40° 124° (SE) 16:00:47 437.485
GOMX 1 24 Jan 15:55:05 15:59:23 27° 61° (ENE) 16:03:28 467.674
Cosmos 2504 24 Jan 15:55:22 16:03:43 61° 287° (WNW) 16:11:31 435.465 / 435.565
NOAA 18 24 Jan 16:02:59 16:05:45 14° 45° (NE) 16:08:31 137.9125
ITAMSAT 1 24 Jan 16:09:52 16:13:30 19° 271° (W) 16:17:10 435.822/435.867
DOVE 4 24 Jan 16:11:34 16:14:31 17° 56° (ENE) 16:17:22 437.250
BRITE-PL 24 Jan 16:13:46 16:19:25 74° 72° (ENE) 16:24:51 437.365/2234.400
CUTE-I 24 Jan 16:13:50 16:17:52 23° 54° (NE) 16:21:55 437.470
MOZHAYETS 4 24 Jan 16:21:19 16:26:00 80° 103° (ESE) 16:30:39
DANDE 24 Jan 16:26:53 16:33:18 29° 277° (W) 16:40:03 436.750
KKS-1 24 Jan 16:26:56 16:30:56 32° 96° (E) 16:34:55 437.445
LilacSat-2 24 Jan 16:33:40 16:36:32 21° 61° (ENE) 16:39:26 437.200
CUSAT 1 24 Jan 16:36:05 16:37:50 11° 293° (WNW) 16:39:34 437.405
ITUPSAT 1 24 Jan 16:36:46 16:41:09 36° 297° (WNW) 16:45:31 437.325
AO-7 24 Jan 16:36:46 16:43:43 28° 269° (W) 16:50:43 29.400- 29.500
HORYU 2 24 Jan 16:39:59 16:44:20 63° 71° (ENE) 16:48:45 437.375
BEESAT 2 24 Jan 16:48:17 16:52:11 60° 129° (SE) 16:56:10 435.950
NOAA 15 24 Jan 16:49:16 16:54:10 39° 62° (ENE) 16:59:06 137.62
SO-50 24 Jan 16:54:35 16:57:08 15° 248° (WSW) 16:59:40 436.795
Cubesat XI-IV 24 Jan 16:57:20 17:02:19 42° 63° (ENE) 17:07:19 437.490
M-CUBED/EXP-1 PRIME 24 Jan 17:02:11 17:05:26 45° 106° (ESE) 17:08:35 437.505
HO-68 24 Jan 17:05:12 17:10:49 25° 46° (NE) 17:16:26 435.675
CINEMA 3 24 Jan 17:06:30 17:08:33 13° 54° (NE) 17:10:34 145.822/145.860
STARS 24 Jan 17:06:46 17:10:51 37° 97° (E) 17:14:55 437.465
BEESAT 24 Jan 17:08:42 17:12:18 22° 304° (NW) 17:15:55 436.000
SWISSCUBE 24 Jan 17:11:00 17:14:24 20° 305° (NW) 17:17:48 437.505
CUBESAT XI-V 24 Jan 17:19:48 17:24:27 55° 100° (E) 17:29:02 437.345
BEESAT 3 24 Jan 17:31:00 17:34:43 39° 325° (NW) 17:38:29 437.485
GOMX 1 24 Jan 17:32:03 17:37:13 59° 259° (W) 17:42:05 467.674
CANX-2 24 Jan 17:34:12 17:36:53 16° 56° (NE) 17:39:35 2200.000
AUBIESAT-1 24 Jan 17:34:38 17:38:01 87° 111° (ESE) 17:41:19 437.475
AO-85 24 Jan 17:34:39 17:37:23 17° 357° (N) 17:40:02 145.980
SEEDS 24 Jan 17:36:37 17:38:01 11° 52° (NE) 17:39:25 437.485
